[[{"header":{"parameterUnit":"m.s-1","parameterCategory":1,"la1":30.2991,"la2":30.254,"lo1":-89.0895,"lo2":-89.0444,"dy":0.0017,"dx":0.0017,"nx":28,"ny":28,"refTime":"2024-09-01T09:00:00:Z","depth":0,"parameterNumber":2,"parameterNumberName":"U-component_of_WINDS"},"data":[0,0,0,0,0,0,0,0,0,0,0,0,0,0,0,0,0,0,0,0,0,0,0,0,0,0,0,0,0,0,0,0,0,0,0,0,0,0,0,0,0,0,0,0,0,0,0,0,0,0,0,0,0,0,0,0,0,0,-2.0213,-2.0213,0,-2.0212,-2.0212,-2.0212,-2.0176,-2.0175,-2.0174,-2.0173,-2.0172,-2.0173,-2.0173,0,0,0,0,0,0,0,0,0,0,0,0,0,-2.0185,-2.0186,-2.0213,-2.0213,-2.0213,-2.0212,-2.0212,-2.0212,-2.0176,-2.0175,-2.0174,-2.0173,-2.0171,-2.0172,-2.0173,0,0,0,0,0,0,0,0,0,0,0,0,0,-2.0192,-2.0186,-2.0213,-2.0195,-2.0193,-2.0212,-2.0212,-2.0212,-2.0177,-2.0175,-2.0174,-2.0173,-2.0171,-2.0172,-2.0174,-2.0209,0,0,-2.0177,-2.0178,0,0,0,0,0,0,0,0,-2.0191,-2.0193,-2.0198,-2.0196,-2.0194,-2.0193,-2.0201,-2.0211,-2.0177,-2.0183,-2.0173,-2.0172,-2.018,-2.018,-2.0183,-2.0208,-2.0208,-2.0177,-2.0178,-2.0179,-2.0179,0,0,0,0,0,0,0,-2.0191,-2.0193,-2.0212,-2.0198,-2.0196,-2.0187,-2.0187,-2.0203,-2.0189,-2.0182,-2.018,-2.018,-2.0179,-2.0182,-2.0183,-2.0208,-2.0177,-2.0178,-2.0179,-2.018,-2.0264,-2.0266,0,0,0,0,0,0,-2.0193,-2.0192,-2.0212,-2.0212,-2.019,-2.0189,-2.0188,-2.0195,-2.0189,-2.0187,-2.0181,-2.0178,-2.018,-2.0181,-2.0182,-2.0224,-2.0179,-2.018,-2.018,-2.0263,-2.0264,-2.0266,0,0,0,0,0,0,-2.0192,-2.0195,-2.0212,-2.0202,-2.0203,-2.0191,-2.0198,-2.0195,-2.0198,-2.0188,-2.0185,-2.0187,-2.0179,-2.0181,-2.0203,-2.0223,-2.018,-2.0181,-2.0261,-2.0263,-2.0265,-2.0306,0,0,0,0,0,0,-2.0192,-2.0195,-2.0208,-2.0202,-2.0204,-2.0232,-2.0199,-2.0196,-2.0201,-2.0197,-2.0193,-2.0191,-2.0178,-2.0201,-2.0204,-2.0224,-2.0182,-2.0259,-2.0262,-2.0265,-2.0303,-2.0309,-2.0315,0,0,0,0,0,-2.0191,-2.0219,-2.0209,-2.0211,-2.022,-2.0234,-2.0235,-2.022,-2.0203,-2.0216,-2.0209,-2.0191,-2.0221,-2.0204,-2.0206,-2.0227,-2.0257,-2.0261,-2.0264,-2.03,-2.0308,-2.0315,0,0,0,0,0,0,-2.0226,-2.0218,-2.0206,-2.0233,-2.0235,-2.0228,-2.0243,-2.0229,-2.0235,-2.0231,-2.0213,-2.0212,-2.0237,-2.0234,-2.0216,-2.0262,-2.0236,-2.024,-2.0262,-2.027,-2.0276,-2.0276,-2.0183,0,0,0,0,0,-2.0237,-2.0249,-2.0241,-2.0266,-2.0267,-2.0256,-2.0261,-2.025,-2.025,-2.0251,-2.0246,-2.0247,-2.0257,-2.0263,-2.0271,-2.0303,-2.0302,-2.0319,-2.0325,-2.033,-2.0333,-2.0351,-2.0359,-2.0277,-2.0277,-2.0277,0,0,-2.026,-2.0257,-2.0265,-2.0273,-2.0273,-2.0286,-2.0256,-2.0271,-2.028,-2.0253,-2.0273,-2.027,-2.027,-2.0297,-2.0309,-2.0296,-2.0356,-2.0334,-2.0339,-2.0339,-2.0355,-2.0363,-2.037,-2.028,-2.0279,-2.0279,0,0,-2.0308,-2.0307,-2.0328,-2.0328,-2.0329,-2.0321,-2.0326,-2.0322,-2.0319,-2.034,-2.032,-2.0331,-2.0348,-2.0349,-2.0352,-2.0404,-2.0387,-2.0407,-2.0439,-2.0456,-2.0462,-2.0468,-2.0486,-2.0493,-2.0411,-2.0411,-2.0411,0,-2.0336,-2.0355,-2.034,-2.0357,-2.0361,-2.0338,-2.0359,-2.0361,-2.0364,-2.0367,-2.0353,-2.0375,-2.0373,-2.0401,-2.0414,-2.0417,-2.0422,-2.0407,-2.0463,-2.0468,-2.0473,-2.0491,-2.0498,-2.0413,-2.0413,-2.0413,-2.0412,0,-2.0389,-2.0403,-2.042,-2.0424,-2.0431,-2.045,-2.0438,-2.0447,-2.0436,-2.043,-2.0452,-2.045,-2.0458,-2.0464,-2.0453,-2.0491,-2.0482,-2.0466,-2.0439,-2.0483,-2.05,-2.0506,-2.0417,-2.0416,-2.0415,-2.0414,0,0,-2.0457,-2.0455,-2.0461,-2.0464,-2.0464,-2.0474,-2.0493,-2.0501,-2.0509,-2.0513,-2.0528,-2.0544,-2.0529,-2.0533,-2.0522,-2.0537,-2.0579,-2.0519,-2.0518,-2.053,-2.0621,-2.0633,-2.0641,-2.0569,-2.057,-2.0571,-2.0621,0,-2.0503,-2.0535,-2.0523,-2.0556,-2.0569,-2.0548,-2.0565,-2.0567,-2.0563,-2.0573,-2.0568,-2.058,-2.0559,-2.0561,-2.0576,-2.0571,-2.0597,-2.0567,-2.0583,-2.0583,-2.0583,-2.0649,-2.0662,-2.0709,-2.0627,-2.0628,-2.0629,0,-2.0561,-2.0568,-2.0602,-2.0601,-2.0606,-2.0621,-2.0629,-2.064,-2.0642,-2.0638,-2.0643,-2.063,-2.0649,-2.0624,-2.065,-2.063,-2.0636,-2.0635,-2.0636,-2.0636,-2.0608,-2.0651,-2.0723,-2.073,-2.0638,-2.0638,-2.0637,0,-2.0607,-2.0625,-2.0648,-2.0651,-2.0651,-2.0662,-2.0662,-2.0664,-2.067,-2.0677,-2.0681,-2.069,-2.0695,-2.0703,-2.0693,-2.0675,-2.072,-2.0694,-2.0717,-2.0718,-2.0727,-2.0726,-2.0801,-2.0732,-2.0732,-2.0732,-2.0732,0,-2.0659,-2.0681,-2.0669,-2.0683,-2.0707,-2.0695,-2.0719,-2.0717,-2.0719,-2.0733,-2.0716,-2.0729,-2.0715,-2.0727,-2.072,-2.0743,-2.0745,-2.0742,-2.074,-2.0743,-2.0744,-2.0746,-2.0743,-2.0734,-2.0733,-2.0733,-2.0732,0,-2.0714,-2.0707,-2.0731,-2.073,-2.073,-2.0748,-2.0747,-2.076,-2.0756,-2.0773,-2.0777,-2.077,-2.0783,-2.0774,-2.0788,-2.0783,-2.0813,-2.0806,-2.0812,-2.081,-2.0834,-2.0832,-2.0912,-2.0922,-2.0848,-2.0848,-2.0849,0,-2.0748,-2.0764,-2.0765,-2.0774,-2.0776,-2.0789,-2.0796,-2.0785,-2.0793,-2.0799,-2.0811,-2.0824,-2.0833,-2.0856,-2.0852,-2.0863,-2.0856,-2.0883,-2.0857,-2.0861,-2.0856,-2.0855,-2.0857,-2.0888,-2.0889,-2.089,-2.089,0,-2.0808,-2.0804,-2.0815,-2.0826,-2.0835,-2.0842,-2.0848,-2.0856,-2.0846,-2.0856,-2.087,-2.0877,-2.0892,-2.0905,-2.0914,-2.0915,-2.0901,-2.0899,-2.0905,-2.0908,-2.0911,-2.091,-2.0826,-2.0897,-2.0896,-2.0896,-2.0895,-2.0895,-2.0853,-2.0867,-2.0871,-2.0884,-2.0888,-2.0895,-2.0907,-2.0905,-2.0917,-2.0929,-2.0922,-2.0939,-2.0943,-2.0954,-2.0957,-2.097,-2.0959,-2.0967,-2.0969,-2.0971,-2.0975,-2.091,-2.0972,-2.0971,-2.0971,-2.0971,-2.0971,0,-2.0912,-2.0914,-2.0927,-2.0937,-2.0948,-2.0935,-2.0942,-2.0952,-2.0967,-2.0972,-2.0982,-2.0999,-2.1012,-2.101,-2.1022,-2.1033,-2.1027,-2.1036,-2.1035,-2.1036,-2.0984,-2.0978,-2.1041,-2.1041,-2.1041,-2.1041,-2.1041,-2.1041,-2.0944,-2.0968,-2.0965,-2.0991,-2.0993,-2.101,-2.1015,-2.1021,-2.1025,-2.1046,-2.1057,-2.1056,-2.1058,-2.107,-2.1082,-2.1081,-2.1086,-2.1098,-2.1094,-2.1046,-2.1039,-2.1032,-2.1026,-2.1099,-2.1099,-2.1145,-2.1145,-2.1146]},{"header":{"parameterUnit":"m.s-1","parameterCategory":1,"la1":30.2991,"la2":30.254,"lo1":-89.0895,"lo2":-89.0444,"dy":0.0017,"dx":0.0017,"nx":28,"ny":28,"refTime":"2024-09-01T09:00:00:Z","depth":0,"parameterNumber":3,"parameterNumberName":"V-component_of_WINDS"},"data":[0,0,0,0,0,0,0,0,0,0,0,0,0,0,0,0,0,0,0,0,0,0,0,0,0,0,0,0,0,0,0,0,0,0,0,0,0,0,0,0,0,0,0,0,0,0,0,0,0,0,0,0,0,0,0,0,0,0,-2.9091,-2.9091,0,-2.9088,-2.9088,-2.9088,-2.9039,-2.9038,-2.9037,-2.9035,-2.9031,-2.9032,-2.9033,0,0,0,0,0,0,0,0,0,0,0,0,0,-2.9056,-2.9057,-2.9091,-2.9091,-2.9091,-2.9088,-2.9088,-2.9088,-2.9039,-2.9038,-2.9036,-2.9035,-2.9031,-2.9032,-2.9033,0,0,0,0,0,0,0,0,0,0,0,0,0,-2.9064,-2.9057,-2.9091,-2.9067,-2.9065,-2.9088,-2.9088,-2.9088,-2.904,-2.9038,-2.9036,-2.9034,-2.903,-2.9032,-2.9033,-2.908,0,0,-2.9038,-2.9039,0,0,0,0,0,0,0,0,-2.9064,-2.9065,-2.907,-2.9069,-2.9066,-2.9062,-2.9074,-2.9085,-2.904,-2.9049,-2.9035,-2.9033,-2.9043,-2.9043,-2.9046,-2.9079,-2.9079,-2.9038,-2.9039,-2.904,-2.904,0,0,0,0,0,0,0,-2.9063,-2.9065,-2.909,-2.9071,-2.9068,-2.9056,-2.9055,-2.9075,-2.9056,-2.9048,-2.9045,-2.9045,-2.9041,-2.9045,-2.9046,-2.9079,-2.9038,-2.9039,-2.904,-2.9041,-2.915,-2.9152,0,0,0,0,0,0,-2.9066,-2.9065,-2.909,-2.909,-2.906,-2.9058,-2.9057,-2.9065,-2.9056,-2.9053,-2.9046,-2.9043,-2.9043,-2.9044,-2.9046,-2.91,-2.904,-2.9041,-2.9042,-2.9148,-2.9151,-2.9153,0,0,0,0,0,0,-2.9066,-2.9069,-2.909,-2.9077,-2.9078,-2.906,-2.907,-2.9066,-2.907,-2.9055,-2.9051,-2.9054,-2.9042,-2.9043,-2.9072,-2.9099,-2.9042,-2.9043,-2.9146,-2.9149,-2.9152,-2.9208,0,0,0,0,0,0,-2.9065,-2.9069,-2.9086,-2.9077,-2.9079,-2.9117,-2.9072,-2.9067,-2.9073,-2.9068,-2.9061,-2.9058,-2.9041,-2.907,-2.9073,-2.91,-2.9044,-2.9144,-2.9147,-2.9151,-2.9204,-2.9213,-2.9221,0,0,0,0,0,-2.9064,-2.9102,-2.9088,-2.9091,-2.9101,-2.9118,-2.9119,-2.9099,-2.9075,-2.9093,-2.9083,-2.9058,-2.9095,-2.9073,-2.9077,-2.9104,-2.9142,-2.9146,-2.9151,-2.92,-2.9211,-2.922,0,0,0,0,0,0,-2.9114,-2.91,-2.9084,-2.9121,-2.9121,-2.911,-2.9131,-2.9111,-2.9118,-2.9113,-2.9087,-2.9086,-2.9118,-2.9114,-2.9089,-2.9149,-2.9114,-2.912,-2.9151,-2.9161,-2.9169,-2.917,-2.9046,0,0,0,0,0,-2.913,-2.9146,-2.9132,-2.9166,-2.9167,-2.9149,-2.9156,-2.9141,-2.914,-2.914,-2.9132,-2.9132,-2.9144,-2.9152,-2.9162,-2.9203,-2.9201,-2.9224,-2.9232,-2.9239,-2.9244,-2.9266,-2.9277,-2.9168,-2.9168,-2.9168,0,0,-2.9162,-2.9156,-2.9168,-2.9176,-2.9174,-2.9191,-2.915,-2.9169,-2.9181,-2.9142,-2.9169,-2.9163,-2.9162,-2.9197,-2.9212,-2.9194,-2.9274,-2.9245,-2.925,-2.9252,-2.9272,-2.9282,-2.9292,-2.9171,-2.917,-2.917,0,0,-2.9229,-2.9226,-2.9255,-2.9254,-2.9252,-2.924,-2.9247,-2.9239,-2.9234,-2.9261,-2.9232,-2.9246,-2.9266,-2.9267,-2.927,-2.9338,-2.9315,-2.9342,-2.9385,-2.9407,-2.9416,-2.9423,-2.9448,-2.9457,-2.9347,-2.9347,-2.9347,0,-2.927,-2.9294,-2.9271,-2.9293,-2.9298,-2.9264,-2.9292,-2.9292,-2.9294,-2.9298,-2.9278,-2.9304,-2.93,-2.9335,-2.9352,-2.9355,-2.9363,-2.9343,-2.9416,-2.9424,-2.943,-2.9454,-2.9463,-2.935,-2.935,-2.9349,-2.9349,0,-2.9344,-2.9361,-2.9384,-2.9387,-2.9394,-2.9419,-2.9401,-2.941,-2.9394,-2.9384,-2.9412,-2.9406,-2.9415,-2.9422,-2.9406,-2.9455,-2.9444,-2.9421,-2.9386,-2.9444,-2.9466,-2.9475,-2.9355,-2.9354,-2.9353,-2.9352,0,0,-2.9443,-2.9434,-2.9443,-2.9444,-2.944,-2.9453,-2.9476,-2.9485,-2.9494,-2.9497,-2.9516,-2.9534,-2.9513,-2.9516,-2.95,-2.9519,-2.9574,-2.9493,-2.9493,-2.9509,-2.9629,-2.9648,-2.9658,-2.9559,-2.9561,-2.9562,-2.963,0,-2.9509,-2.9549,-2.9529,-2.9572,-2.9588,-2.9556,-2.9576,-2.9576,-2.9567,-2.958,-2.957,-2.9584,-2.9554,-2.9556,-2.9573,-2.9564,-2.9598,-2.9559,-2.9578,-2.9578,-2.958,-2.967,-2.9689,-2.9753,-2.9638,-2.9639,-2.964,0,-2.9591,-2.9597,-2.9641,-2.9635,-2.9641,-2.966,-2.9667,-2.9679,-2.9678,-2.967,-2.9674,-2.9654,-2.9676,-2.9641,-2.9672,-2.9646,-2.9652,-2.9649,-2.9651,-2.9652,-2.9614,-2.9675,-2.9773,-2.9783,-2.9653,-2.9652,-2.9651,0,-2.966,-2.968,-2.9709,-2.9711,-2.9704,-2.9718,-2.9716,-2.9713,-2.972,-2.9725,-2.973,-2.9738,-2.9743,-2.9749,-2.9732,-2.9708,-2.9766,-2.9729,-2.976,-2.9761,-2.9775,-2.9774,-2.9876,-2.9778,-2.9777,-2.9777,-2.9777,0,-2.9736,-2.9764,-2.974,-2.9758,-2.9789,-2.9766,-2.9798,-2.9792,-2.979,-2.9806,-2.9778,-2.9794,-2.977,-2.9783,-2.9769,-2.9798,-2.98,-2.9795,-2.9791,-2.9798,-2.9799,-2.9802,-2.9798,-2.978,-2.9779,-2.9779,-2.9778,0,-2.9819,-2.9803,-2.9833,-2.9824,-2.9823,-2.9846,-2.9839,-2.9855,-2.9845,-2.9866,-2.9869,-2.9853,-2.9868,-2.9851,-2.9863,-2.9854,-2.9893,-2.9882,-2.9894,-2.9891,-2.9924,-2.9922,-3.0033,-3.0047,-2.9938,-2.9939,-2.994,0,-2.9869,-2.989,-2.9884,-2.9893,-2.9892,-2.9907,-2.9914,-2.9893,-2.9901,-2.9902,-2.9919,-2.9931,-2.994,-2.9964,-2.9954,-2.9964,-2.9953,-2.9992,-2.9955,-2.9961,-2.9955,-2.9955,-2.9957,-2.9999,-3.0001,-3.0002,-3.0003,0,-2.9959,-2.9951,-2.9962,-2.9971,-2.998,-2.9986,-2.999,-2.9999,-2.9976,-2.9987,-3.0002,-3.0009,-3.0022,-3.0035,-3.0042,-3.004,-3.0018,-3.0014,-3.0022,-3.003,-3.0036,-3.0034,-2.9915,-3.0012,-3.0011,-3.001,-3.001,-3.0009,-3.0027,-3.0045,-3.0044,-3.0058,-3.0058,-3.0063,-3.0078,-3.007,-3.0082,-3.0092,-3.0078,-3.0097,-3.0095,-3.0103,-3.0103,-3.0117,-3.0101,-3.0112,-3.0115,-3.0119,-3.0124,-3.0033,-3.0118,-3.0118,-3.0117,-3.0117,-3.0117,0,-3.0117,-3.0115,-3.0128,-3.0135,-3.0145,-3.0124,-3.0127,-3.0138,-3.0155,-3.0155,-3.0165,-3.0182,-3.0195,-3.0185,-3.0196,-3.0209,-3.0199,-3.0212,-3.0212,-3.0212,-3.0138,-3.013,-3.022,-3.022,-3.022,-3.022,-3.022,-3.022,-3.0166,-3.0195,-3.0186,-3.0216,-3.0213,-3.0232,-3.0235,-3.0239,-3.024,-3.0261,-3.0271,-3.0265,-3.0262,-3.0272,-3.0283,-3.0279,-3.0285,-3.0302,-3.0296,-3.0227,-3.0217,-3.0207,-3.02,-3.0303,-3.0303,-3.0368,-3.0369,-3.0369]}]]